Regional Weather Roundup
Issued by NWS Memphis, TN

Home | Current Version | Previous Version | Text Only | Print | Product List | Glossary On
Versions: 1 2 3 4 5 6 7 8 9 10 11 12 13 14 15 16 17 18 19 20 21 22 23 24 25 26 27 28 29 30 31 32 33 34 35 36 37 38 39 40 41 42 43 44 45 46 47 48 49 50
000
ASUS44 KMEG 010810
RWRMEG
MEMPHIS CWA HOURLY WEATHER ROUNDUP
NATIONAL WEATHER SERVICE MEMPHIS TN
300 AM CDT WED OCT 01 2014

...WEST TENNESSEE...

CITY           SKY/WX    TMP DP  RH WIND       PRES   REMARKS
MEMPHIS INTL   PTCLDY    71  60  68 SE3       29.89S
NWS MEMPHIS      N/A     65 N/A N/A MISG        N/A
JACKSON        CLEAR     60  58  92 CALM      29.90S FOG
LEXINGTON      CLEAR     57  57 100 CALM      29.90F
SAVANNAH       CLEAR     57  57 100 CALM      29.91F
DYERSBURG      CLEAR     63  52  67 CALM      29.91S
UNION CITY       N/A     57  57 100 CALM      29.89S VSB 1/2
PARIS          CLEAR     55  54  94 CALM      29.91S
HUNTINGDON     CLEAR     58  56  93 CALM      29.91S


...EASTERN ARKANSAS...

CITY           SKY/WX    TMP DP  RH WIND       PRES   REMARKS
JONESBORO      CLEAR     63  60  90 CALM      29.88S
WEST MEMPHIS   CLEAR     64  62  93 CALM      29.87S
BATESVILLE     CLEAR     61  54  77 CALM      29.88F
NEWPORT        CLEAR     64  60  87 CALM      29.89S
WALNUT RIDGE   CLEAR     63  57  82 CALM      29.87S
BLYTHEVILLE    CLEAR     66  61  84 S3        29.89S
SEARCY           N/A     61  58  90 CALM      29.89S
STUTTGART      CLEAR    N/A N/A N/A SE7       29.87S
PINE BLUFF     PTCLDY    63  60  90 CALM      29.86S
MONTICELLO     CLOUDY    73  62  68 SE3       29.86S


...NORTH MISSISSIPPI...

CITY           SKY/WX    TMP DP  RH WIND       PRES   REMARKS
TUPELO         CLEAR     64  60  87 CALM      29.90S
OXFORD         CLEAR     63  59  88 CALM      29.92S
OLIVE BRANCH   CLEAR     64  64 100 CALM      29.90S
TUNICA         CLEAR     63  59  88 CALM      29.89S
CLARKSDALE     CLEAR     66  64  94 CALM      29.89S
CORINTH          N/A     61  59  94 CALM      29.90S FOG
GRENADA        CLEAR     61  61 100 CALM      29.90S
GREENWOOD      CLEAR     65  61  87 NE3       29.89R
COLUMBUS       CLEAR     61  61 100 CALM      29.90S
STARKVILLE     FAIR      59  59 100 CALM      29.90S
GOLDEN TRIANGL CLEAR     64  57  77 S5        29.89F


...SOUTHEAST MISSOURI...

CITY           SKY/WX    TMP DP  RH WIND       PRES   REMARKS
WEST PLAINS    CLEAR     59  53  80 SE3       29.91S
POPLAR BLUFF   CLEAR     58  55  90 CALM      29.88S
CAPE GIRARDEAU CLEAR     57  55  93 SE3       29.89F


...NORTHWEST ALABAMA...

CITY           SKY/WX    TMP DP  RH WIND       PRES   REMARKS
MUSCLE SHOALS  CLEAR     60  57  89 CALM      29.93S


...MIDDLE TENNESSEE...

CITY           SKY/WX    TMP DP  RH WIND       PRES   REMARKS
NASHVILLE      CLEAR     59  56  89 S3        29.93F
CLARKSVILLE    PTCLDY    58  55  90 E5        29.92S
LEWISBURG      CLEAR     55  53  93 CALM      29.93F


...WESTERN KENTUCKY...

CITY           SKY/WX    TMP DP  RH WIND       PRES   REMARKS
PADUCAH        CLEAR     57  56  96 CALM      29.89F FOG
FORT CAMPBELL  PTCLDY    57  55  93 E2        29.92S


...CENTRAL ARKANSAS...

CITY           SKY/WX    TMP DP  RH WIND       PRES   REMARKS
LITTLE ROCK    PTCLDY    68  63  84 CALM      29.86S


SKY/WX REPORTED AS FAIR MEANS FEW OR NO CLOUDS BELOW
12 THOUSAND FEET.




USA.gov is the U.S. government's official web portal to all federal, state and local government web resources and services.